Hourly Weather Roundup
Issued by NWS Central Illinois

Home | Current Version | Previous Version | Text Only | Print | Product List | Glossary On
Versions: 1 2 3 4 5 6 7 8 9 10 11 12 13 14 15 16 17 18 19 20 21 22 23 24 25 26 27 28 29 30 31 32 33 34 35 36 37 38 39 40 41 42 43 44 45 46 47 48 49 50
000
NZUS43 KILX 272310
HWRILX

AREA WEATHER ROUNDUP
NATIONAL WEATHER SERVICE, LINCOLN IL
500 PM CST FRI FEB 27 2015


CITY           SKY/WX    TMP DP  RH WIND       PRES   REMARKS
BLOOMINGTON    CLEAR     15  -1  49 CALM      30.62S
CHAMPAIGN      CLEAR     10   0  63 SW7       30.63R WCI  -1
DECATUR        CLEAR     12   2  64 SE6       30.64R WCI   3
FLORA          CLEAR     16   2  55 N3        30.66R
GALESBURG      CLEAR      8  -3  60 CALM      30.62F
JACKSONVILLE   CLEAR     13  -1  52 CALM      30.64S
LACON          CLEAR     10  -4  52 N5        30.64F WCI   2
LAWRENCEVILLE  CLEAR     20   3  48 N5        30.65R WCI  13
LITCHFIELD     CLEAR     11  -2  54 N5        30.63S WCI   3
$$


CITY           SKY/WX    TMP DP  RH WIND       PRES   REMARKS
LINCOLN        PTCLDY    16   3  58 S6        30.67R WCI   7
MACOMB         CLEAR      8  -1  67 NE5       30.65F WCI   0
MATTOON        CLEAR     12   0  58 N6        30.63R WCI   3
MT CARMEL AP   CLEAR     23   5  46 W6        30.65R WCI  16
OLNEY-NOBLE AP CLEAR     18   3  53 NW5       30.65S WCI  11
PARIS          CLEAR     12   2  64 CALM      30.65R
PEORIA         CLEAR     15  -3  44 W7        30.64R WCI   5
PONTIAC        CLEAR     12   0  58 CALM      30.65R
RANTOUL        CLEAR     16   2  56 NW5       30.62S WCI   8
ROBINSON       CLEAR     17   2  51 NW5       30.67R WCI  10
SPRINGFIELD    CLEAR     11  -1  58 SW7       30.65R WCI   0
TAYLORVILLE    CLEAR     12   1  62 CALM      30.65R
$$

...REGIONAL REPORTS...


CITY           SKY/WX    TMP DP  RH WIND       PRES   REMARKS
CHICAGO O`HARE CLEAR     11  -5  48 W8        30.59R WCI  -1
KANKAKEE       CLEAR     10  -1  63 SW6       30.64S WCI   0
MOLINE         CLEAR      9  -5  53 SW5       30.63R WCI   1
MOUNT VERNON   PTCLDY    19   3  49 N7        30.63S WCI  10
PITTSFIELD     CLEAR     15  -1  49 CALM      30.63S
QUINCY         CLEAR     11  -4  51 E3        30.61F
ROCKFORD       CLEAR     11  -5  48 W5        30.60S WCI   3
$$


CITY           SKY/WX    TMP DP  RH WIND       PRES   REMARKS
BURLINGTON     CLEAR     11  -2  56 CALM      30.61F
CEDAR RAPIDS   CLEAR      5  -3  69 NW5       30.59S WCI  -4
DES MOINES     MOSUNNY   14  -3  47 CALM      30.56F
KIRKSVILLE     SUNNY     17   2  51 E8        30.57S WCI   7
OTTUMWA        CLEAR     11   0  61 NE8       30.58F WCI  -1
ST LOUIS       MOCLDY    18  -1  43 NE7       30.62S WCI   9
$$


CITY           SKY/WX    TMP DP  RH WIND       PRES   REMARKS
TERRE HAUTE    CLEAR     16  -2  45 N6        30.63S WCI   7
EVANSVILLE     PTCLDY    22   7  52 N6        30.64R WCI  14
INDIANAPOLIS   PTCLDY    16  -3  43 N8        30.59S WCI   5
LAFAYETTE      CLEAR     13  -2  51 N7        30.63R WCI   3
MADISON        CLEAR     14  -4  44 SW7       30.53S WCI   4
MILWAUKEE      CLEAR     15  -5  40 SW14      30.55S WCI   0
$$




USA.gov is the U.S. government's official web portal to all federal, state and local government web resources and services.